sat.trackr.live / text

‹ back to catalog

STARLINK-31238

NORAD 58853 · 2024-019A

PAYLOAD ACTIVE UNKNOWN

§ Identity

Operator
Country
US
Launch date
2024-01-29
Launch site
AFETR
Launch vehicle
Mass (kg)
RCS (m²)

Purposes: comms

External: N2YO · Heavens-Above · Gunter

§ Orbital elements

Epoch: 2026-09-20T08:04:36.650784Z

Period
94.27 min
Inclination
43.0016°
Eccentricity
0.0000852
Mean motion
15.27576447 rev/d
Perigee alt
482.5 km
Apogee alt
483.6 km
Semi-major
6,861.2 km
B*
2.9799e-5
RAAN
229.4368°
Arg perigee
274.4305°
Mean anomaly
85.6449°
Rev number
14,885

§ Raw data

STARLINK-312381 58853U 24019A   26263.33653531  .00000558  00000+0  29799-4 0  99902 58853  43.0016 229.4368 0000852 274.4305  85.6449 15.27576447148859

JSON: /api/v1/satellites/58853 · /tle

For live sub-satellite position, see the globe view (requires WebGL).

§ Visibility from observer

Set your observer location to see the next 7 days of passes ≥ 10°. The values pass through the URL so the page stays shareable.

No JS? Fill the form by hand. The geolocation button needs JavaScript.